SB KEPS @ AMSAT $ORB12158.N 2Line Orbital Elements 12158.AMSAT
HR AMSAT ORBITAL ELEMENTS FOR AMATEUR SATELLITES IN NASA FORMAT FROM WA5QGD FORT WORTH,TX June 6, 2012 Send SUBSCRIBE KEPS/UNSUBSCRIBE KEPS to majordomo@amsat.org only BID: ORB12158.N
DECODE 2-LINE ELSETS WITH THE FOLLOWING KEY: 1 AAAAAU 00 0 0 BBBBB.BBBBBBBB .CCCCCCCC 00000-0 00000-0 0 DDDZ 2 AAAAA EEE.EEEE FFF.FFFF GGGGGGG HHH.HHHH III.IIII JJ.JJJJJJJJKKKKKZ KEY: A-CATALOGNUM B-EPOCHTIME C-DECAY D-ELSETNUM E-INCLINATION F-RAAN G-ECCENTRICITY H-ARGPERIGEE I-MNANOM J-MNMOTION K-ORBITNUM Z-CHECKSUM
TO ALL RADIO AMATEURS BT
AO-07 1 07530U 74089B 12157.57352586 -.00000027 00000-0 10000-3 0 3976 2 07530 101.4014 155.2322 0011823 306.8506 053.1483 12.53589615718590 FO-29 1 24278U 96046B 12157.87163161 -.00000108 00000-0 -75684-4 0 08698 2 24278 098.5859 260.0064 0351128 058.7105 304.7915 13.52983010780425 SO-33 1 25509U 98061B 12158.64963953 .00000871 00000-0 16233-3 0 2499 2 25509 031.4318 033.3212 0352101 111.1636 252.6982 14.28763501711143 RS-22 1 27939U 03042A 12158.67707234 .00000653 00000-0 13296-3 0 4221 2 27939 097.8130 000.0326 0012430 301.6475 058.3512 14.64030922464343 VO-52 1 28650U 05017B 12158.59661408 .00001902 00000-0 23895-3 0 1208 2 28650 097.5968 190.0689 0027711 076.6286 283.8037 14.82959320383405 HO-68 1 36122U 09072B 12158.72646082 -.00000044 00000-0 00000 0 0 5291 2 36122 100.3615 218.2832 0007913 131.7502 228.4294 13.16296022119012 UO-11 1 14781U 84021B 12157.96889063 .00000556 00000-0 79502-4 0 08870 2 14781 097.9541 217.5875 0010037 071.8529 288.3774 14.80450218518271 AO-16 1 20439U 90005D 12158.53710690 .00000111 00000-0 57039-4 0 4828 2 20439 098.4294 102.2092 0010439 186.3753 173.7312 14.32055249168477 LO-19 1 20442U 90005G 12157.93298916 .00000094 00000-0 50448-4 0 04206 2 20442 098.3952 104.6681 0011828 180.0080 180.1102 14.32273339168570 AO-27 1 22825U 93061C 12158.53648750 -.00000046 00000-0 -95090-6 0 1198 2 22825 098.5744 101.5174 0007584 316.0838 043.9749 14.29461153974956 IO-26 1 22826U 93061D 12158.88931957 .00000100 00000-0 56097-4 0 8706 2 22826 098.5694 102.2382 0008429 309.2797 050.7636 14.29736108975134 GO-32 1 25397U 98043D 12157.58712935 -.00000117 00000-0 -33588-4 0 07941 2 25397 098.3611 136.8674 0001041 010.6444 349.4733 14.23276370722375 NO-44 1 26931U 01043C 12158.40858630 .00000247 00000-0 12805-3 0 577 2 26931 067.0511 148.1204 0007738 265.2237 094.7982 14.29801196557709 SO-50 1 27607U 02058C 12158.77812160 .00000796 00000-0 14033-3 0 7800 2 27607 064.5585 326.5635 0083184 250.7082 108.4997 14.72384959508435 CO-55 1 27844U 03031E 12157.58548423 .00000178 00000-0 10229-3 0 03905 2 27844 098.7024 166.1322 0008804 256.4896 103.5313 14.21023216463245 CO-57 1 27848U 03031J 12158.57303239 .00000174 00000-0 10094-3 0 3415 2 27848 098.7101 166.4338 0008599 258.1412 101.8802 14.20775533463327 AO-51 1 28375U 04025K 12158.73390234 .00000185 00000-0 67841-4 0 2845 2 28375 098.1467 124.4969 0084694 072.3886 288.6528 14.40948182417262 CP3 1 31129U 07012N 12157.92724919 .00000855 00000-0 20339-3 0 01849 2 31129 097.8794 166.3655 0101907 157.5697 203.0042 14.53064923272348 CO-65 1 32785U 08021C 12157.63920896 .00001230 00000-0 15756-3 0 03284 2 32785 097.8013 218.9636 0015812 099.1034 261.1982 14.82966092222050 PRISM 1 33493U 09002B 12158.74114930 .00002321 00000-0 28600-3 0 7613 2 33493 098.1689 299.0557 0018215 334.8719 025.1626 14.83847780182209 SOHLA-1 1 33496U 09002E 12158.48581241 .00000506 00000-0 92690-4 0 7445 2 33496 098.1037 270.2923 0007649 077.6822 282.5243 14.69968311180674 SO-67 1 35870U 09049F 12158.74273696 .00004553 00000-0 19223-3 0 220 2 35870 097.2334 194.8575 0002030 156.9288 313.1395 15.23747233151027 TISAT-1 1 36799U 10035E 12158.67269121 .00001718 00000-0 22351-3 0 404 2 36799 098.0632 234.9305 0014312 200.8856 159.1799 14.81924012102938 STUDSAT 1 36801U 10035G 12158.48787298 .00004617 00000-0 55757-3 0 4082 2 36801 098.0706 235.4073 0012116 189.0476 171.0541 14.84209386102939 FO-69 1 37227U 0 12158.13500643 .00000510 00000-0 79968-4 0 02004 2 37227 071.9688 336.3477 0017165 335.8826 024.1530 14.77071144034468 FO-70 1 37380U 0 12158.13870081 .00000495 00000-0 78237-4 0 02022 2 37380 071.9726 336.8852 0017865 333.0252 026.9991 14.76822960034351 ALMASAT-1 1 38078U 12006B 12158.82356546 .00013865 00000-0 38182-3 0 2745 2 38078 069.4981 340.7323 0761625 261.6474 089.7685 14.08908574 16099 XATCOBEO 1 38082U 12006F 12158.80371341 .00032932 00000-0 80564-3 0 2936 2 38082 069.4951 339.1902 0741537 260.8178 090.8376 14.15439439 16129 NOAA-10 1 16969U 86073A 12157.66553747 .00000184 00000-0 92437-4 0 09479 2 16969 098.5806 186.9239 0011395 269.3428 090.6432 14.27555448338227 NOAA-11 1 19531U 88089A 12157.76001829 -.00000108 00000-0 -33590-4 0 09457 2 19531 098.7324 243.1584 0010344 257.1326 102.8687 14.14968934222893 NOAA-12 1 21263U 91032A 12157.95726543 .00000062 00000-0 45017-4 0 04495 2 21263 098.7284 179.6737 0012914 232.5829 127.4175 14.25498477094957 MET-3/5 1 21655U 91056A 12158.81733422 .00000165 00000-0 39637-3 0 4276 2 21655 082.5548 159.5133 0012937 354.1919 005.9052 13.17036035 521 MET-2/21 1 22782U 93055A 12157.73108168 .00000009 00000-0 -51674-5 0 04378 2 22782 082.5493 041.6055 0022234 180.9584 179.1548 13.83684570947586 OKEAN-4 1 23317U 94066A 12157.97215775 .00001059 00000-0 12445-3 0 09387 2 23317 082.5413 041.6935 0022824 032.5561 327.7057 14.83789124953149 NOAA-14 1 23455U 94089A 12157.93678205 .00000012 00000-0 29743-4 0 09302 2 23455 098.8265 241.5760 0009558 358.0362 002.0769 14.13900948899209 NOAA-15 1 25338U 98030A 12157.89318688 .00000196 00000-0 10233-3 0 02865 2 25338 098.6888 144.9081 0011368 137.4879 222.7182 14.25077295731248 RESURS 1 25394U 98043A 12158.51281051 -.00000004 00000-0 15786-4 0 1041 2 25394 098.3186 147.3119 0000544 316.8342 043.2793 14.24288503722888 FENGYUN1 1 25730U 99025A 12157.92839564 .00001512 00000-0 88685-3 0 6202 2 25730 098.8454 117.1050 0020610 037.7628 322.4983 14.09570789673023 OKEAN-0 1 25860U 99039A 12158.87592059 .00000437 00000-0 73700-4 0 6478 2 25860 097.9348 121.7305 0000696 036.7052 323.4207 14.74207601693052 NOAA-16 1 26536U 00055A 12157.91808236 -.00000045 00000-0 76452-6 0 07702 2 26536 099.0962 199.8664 0011403 113.7964 246.4401 14.12743816603447 NOAA-17 1 27453U 02032A 12157.92424417 .00000147 00000-0 81292-4 0 07296 2 27453 098.3366 185.5300 0011685 184.4672 175.6408 14.24440495517150 NOAA-18 1 28654U 05018A 12157.93787712 .00000420 00000-0 25552-3 0 02057 2 28654 099.0445 115.9321 0014186 182.9169 177.1942 14.11658487362979 NOAA-19 1 33591U 09005A 12157.65968194 .00000283 00000-0 18055-3 0 03965 2 33591 098.8642 097.5919 0014998 056.0848 304.1725 14.11345628171389 HUBBLE 1 20580U 90037B 12157.23442705 .00001704 00000-0 11273-3 0 111 2 20580 028.4673 221.7732 0003475 292.5723 067.4532 15.02529362 12937 ISS 1 25544U 98067A 12158.78670139 .00012336 00000-0 17911-3 0 7027 2 25544 051.6365 174.4085 0010403 037.9761 316.7829 15.56181056776383 CO-58 1 28895U 05043F 12158.39639028 .00000844 00000-0 18235-3 0 1935 2 28895 097.9128 025.1434 0017828 180.8233 179.2960 14.60632449352081 FALCON 1 30776U 07006E 12158.59312844 .00003763 00000-0 24554-3 0 3625 2 30776 035.4322 341.5425 0002612 312.0355 048.0148 15.07494028288652 MAST 1 31126U 07012K 12157.52531589 .00000634 00000-0 15134-3 0 4745 2 31126 097.8744 169.3094 0094342 146.4237 214.2981 14.54155239272574 CAPE1 1 31130U 07012P 12157.68917654 .00000667 00000-0 16133-3 0 04889 2 31130 097.8828 165.8530 0102238 158.8709 201.6729 14.52932342272108 COMPASS 1 32787U 08021E 12157.67411647 .00002617 00000-0 32024-3 0 03220 2 32787 097.8003 219.2629 0016285 097.5606 262.7482 14.83972279222102 AAUSAT2 1 32788U 08021F 12158.38779729 .00002700 00000-0 32766-3 0 3123 2 32788 097.8018 220.3363 0015909 095.4485 264.8568 14.84295249222239 DO-64 1 32789U 08021G 12157.90737632 .00004135 00000-0 48095-3 0 3270 2 32789 097.8140 221.8449 0015930 094.4852 265.8171 14.85757920222206 CO-66 1 32791U 08021J 12157.65919571 .00001765 00000-0 22101-3 0 03130 2 32791 097.8020 218.9999 0016830 097.9353 262.3821 14.83392492222039 RS-30 1 32953U 08025A 12158.82641211 .00000010 00000-0 00000 0 0 8437 2 32953 082.5006 301.5800 0018186 333.8295 026.1869 12.43024289183277 TACSAT-3 1 35001U 09028A 12121.72616188 .15204951 73582-5 42606-3 0 00016 2 35001 040.4259 351.8840 0007146 275.2650 085.0693 16.45157000166990 PHARMSAT 1 35002U 09028B 12157.96524924 .00137550 00000-0 62420-3 0 09242 2 35002 040.4568 139.1741 0006832 160.1824 200.0419 15.82626312172547 METEOR-M 1 35865U 09049A 12158.66410313 -.00000014 00000-0 13357-4 0 4758 2 35865 098.6560 213.1873 0003405 082.9171 277.2389 14.21863307141108 RS-38 1 35869U 09049E 12158.68681318 .00000032 00000-0 34113-4 0 4830 2 35869 098.6505 213.2057 0005555 082.2748 277.9061 14.22072727141122 JUGNU 1 37839U 11058B 12157.93497370 .00000620 00000-0 19019-3 0 01615 2 37839 019.9606 066.3935 0020321 099.7662 260.4994 14.12058464033658 SRMSAT 1 37841U 11058D 12157.90340637 .00000264 00000-0 00000 0 0 1618 2 37841 019.9710 071.2616 0011701 068.4107 291.7576 14.10142236 33592 RAX-2 1 37853U 11061D 12158.57338924 .00006087 00000-0 48642-3 0 1960 2 37853 101.7152 193.9243 0247146 021.1957 339.9269 14.79965231 32828 AUBIESAT 1 37854U 11061E 12158.86881027 .00006921 00000-0 54433-3 0 1973 2 37854 101.7151 194.5867 0247625 019.9236 341.1437 14.80342593 32862 HRBE 1 37855U 11061F 12157.93515433 .00006085 00000-0 47988-3 0 02076 2 37855 101.7187 193.1911 0248695 022.5346 338.6557 14.80189942032723 RS-39 1 38051U 11062C 12158.87908565 .00009506 00000-0 39783-3 0 4002 2 38051 051.6350 208.9531 0012633 002.1145 352.5016 15.24154072 20392 E-STAR 1 38079U 12006C 12158.83908563 .00024521 00000-0 60011-3 0 2735 2 38079 069.4939 339.3143 0747467 260.9524 090.6279 14.14217464 16125 GOLIAT 1 38085U 12006J 12157.90351288 .00025298 00000-0 61731-3 0 2502 2 38085 069.4918 341.6738 0752417 262.2342 089.2932 14.13215935 15982 HORYU-2 1 38340U 12025D 12158.95660614 .00001536 00000-0 26456-3 0 242 2 38340 098.1764 098.6634 0013197 008.7013 351.4437 14.69960263 2972 /EX
participants (1)
-
Ray Hoad